Time,TemperatureF,DewpointF,PressureIn,WindDirection,WindDirectionDegrees,WindSpeedMPH,WindSpeedGustMPH,Humidity,HourlyPrecipIn,Conditions,Clouds,dailyrainin,SoftwareType,DateUTC
2013-04-24 00:03:00,59.4,53.2,30.29,SSE,158,1.6,2.2,80,0.00,,,0.00,pywws,2013-04-24 04:03:00,
2013-04-24 00:08:00,59.2,53.4,30.29,SSE,158,1.6,2.2,81,0.00,,,0.00,pywws,2013-04-24 04:08:00,
2013-04-24 00:13:00,59.0,53.5,30.30,South,180,1.6,2.2,82,0.00,,,0.00,pywws,2013-04-24 04:13:00,
2013-04-24 00:18:00,58.8,53.3,30.30,SE,135,1.6,3.8,82,0.00,,,0.00,pywws,2013-04-24 04:18:00,
2013-04-24 00:23:00,58.6,53.5,30.30,SE,135,0.7,2.2,83,0.00,,,0.00,pywws,2013-04-24 04:23:00,
2013-04-24 00:33:00,58.5,53.3,30.30,SE,135,3.8,6.0,83,0.00,,,0.00,pywws,2013-04-24 04:33:00,
2013-04-24 00:38:00,58.3,53.8,30.31,SE,135,1.6,4.5,85,0.00,,,0.00,pywws,2013-04-24 04:38:00,
2013-04-24 00:43:00,58.1,53.6,30.31,SE,135,1.6,3.1,85,0.00,,,0.00,pywws,2013-04-24 04:43:00,
2013-04-24 00:48:00,57.9,53.4,30.31,SE,135,1.6,3.1,85,0.00,,,0.00,pywws,2013-04-24 04:48:00,
2013-04-24 00:53:00,57.7,53.6,30.31,SE,135,0.7,2.2,86,0.00,,,0.00,pywws,2013-04-24 04:53:00,
2013-04-24 01:03:00,57.6,53.4,30.31,SE,135,0.7,2.2,86,0.00,,,0.00,pywws,2013-04-24 05:03:00,
2013-04-24 01:08:00,57.2,53.4,30.31,SE,135,1.6,2.2,87,0.00,,,0.00,pywws,2013-04-24 05:08:00,
2013-04-24 01:13:00,57.0,53.5,30.31,SE,135,1.6,2.2,88,0.00,,,0.00,pywws,2013-04-24 05:13:00,
2013-04-24 01:18:00,56.8,53.3,30.31,SE,135,0.7,2.2,88,0.00,,,0.00,pywws,2013-04-24 05:18:00,
2013-04-24 01:23:00,56.7,53.5,30.32,SE,135,0.7,1.6,89,0.00,,,0.00,pywws,2013-04-24 05:23:00,
2013-04-24 01:33:00,56.7,53.5,30.32,SE,135,1.6,2.2,89,0.00,,,0.00,pywws,2013-04-24 05:33:00,
2013-04-24 01:37:00,56.3,53.4,30.32,SE,135,0.7,2.2,90,0.00,,,0.00,pywws,2013-04-24 05:37:00,
2013-04-24 01:42:00,56.1,53.2,30.32,SE,135,0.7,2.2,90,0.00,,,0.00,pywws,2013-04-24 05:42:00,
2013-04-24 01:47:00,56.1,53.5,30.32,SW,225,1.6,3.8,91,0.00,,,0.00,pywws,2013-04-24 05:47:00,
2013-04-24 01:52:00,55.9,53.3,30.32,SE,135,0.7,2.2,91,0.00,,,0.00,pywws,2013-04-24 05:52:00,
2013-04-24 02:03:00,55.8,53.2,30.32,SE,135,0.7,3.1,91,0.00,,,0.00,pywws,2013-04-24 06:03:00,
2013-04-24 02:08:00,55.6,53.0,30.32,East,90,0.7,1.6,91,0.00,,,0.00,pywws,2013-04-24 06:08:00,
2013-04-24 02:13:00,55.4,53.1,30.32,South,180,0.7,1.6,92,0.00,,,0.00,pywws,2013-04-24 06:13:00,
2013-04-24 02:18:00,55.2,52.9,30.32,SE,135,0.0,1.6,92,0.00,,,0.00,pywws,2013-04-24 06:18:00,
2013-04-24 02:23:00,55.2,52.9,30.33,SE,135,0.0,0.7,92,0.00,,,0.00,pywws,2013-04-24 06:23:00,
2013-04-24 02:33:00,55.2,53.2,30.33,SE,135,0.7,2.2,93,0.00,,,0.00,pywws,2013-04-24 06:33:00,
2013-04-24 02:37:00,55.0,53.1,30.33,SE,135,0.0,1.6,93,0.00,,,0.00,pywws,2013-04-24 06:37:00,
2013-04-24 02:42:00,54.9,52.9,30.33,SE,135,0.7,1.6,93,0.00,,,0.00,pywws,2013-04-24 06:42:00,
2013-04-24 02:47:00,54.9,53.2,30.33,SE,135,1.6,5.4,94,0.00,,,0.00,pywws,2013-04-24 06:47:00,
2013-04-24 02:52:00,54.9,53.2,30.33,SE,135,1.6,2.2,94,0.00,,,0.00,pywws,2013-04-24 06:52:00,
2013-04-24 03:03:00,55.0,53.3,30.33,SE,135,0.7,2.2,94,0.00,,,0.00,pywws,2013-04-24 07:03:00,
2013-04-24 03:08:00,55.0,53.3,30.33,SE,135,0.7,2.2,94,0.00,,,0.00,pywws,2013-04-24 07:08:00,
2013-04-24 03:13:00,55.2,53.5,30.33,SE,135,0.7,1.6,94,0.00,,,0.00,pywws,2013-04-24 07:13:00,
2013-04-24 03:18:00,55.2,53.5,30.33,South,180,1.6,3.1,94,0.00,,,0.00,pywws,2013-04-24 07:18:00,
2013-04-24 03:23:00,55.4,53.7,30.34,SE,135,0.7,2.2,94,0.00,,,0.00,pywws,2013-04-24 07:23:00,
2013-04-24 03:33:00,55.4,53.7,30.34,South,180,1.6,3.1,94,0.00,,,0.00,pywws,2013-04-24 07:33:00,
2013-04-24 03:38:00,55.6,53.9,30.34,SW,225,0.7,2.2,94,0.00,,,0.00,pywws,2013-04-24 07:38:00,
2013-04-24 03:43:00,55.8,54.1,30.34,East,90,0.7,1.6,94,0.00,,,0.00,pywws,2013-04-24 07:43:00,
2013-04-24 03:48:00,55.8,54.1,30.34,South,180,2.2,3.1,94,0.00,,,0.00,pywws,2013-04-24 07:48:00,
2013-04-24 03:53:00,55.9,54.2,30.34,SE,135,2.2,3.1,94,0.00,,,0.00,pywws,2013-04-24 07:53:00,
2013-04-24 04:03:00,55.9,54.2,30.34,SE,135,1.6,2.2,94,0.00,,,0.00,pywws,2013-04-24 08:03:00,
2013-04-24 04:08:00,55.9,54.2,30.34,SE,135,2.2,5.4,94,0.00,,,0.00,pywws,2013-04-24 08:08:00,
2013-04-24 04:13:00,55.9,54.2,30.34,South,180,2.2,6.0,94,0.00,,,0.00,pywws,2013-04-24 08:13:00,
2013-04-24 04:18:00,55.8,54.1,30.35,South,180,3.1,5.4,94,0.00,,,0.00,pywws,2013-04-24 08:18:00,
2013-04-24 04:23:00,55.9,54.2,30.35,SE,135,1.6,3.1,94,0.00,,,0.00,pywws,2013-04-24 08:23:00,
2013-04-24 04:33:00,55.9,54.2,30.35,SSE,158,0.0,1.6,94,0.00,,,0.00,pywws,2013-04-24 08:33:00,
2013-04-24 04:37:00,55.9,54.2,30.35,SE,135,0.7,3.8,94,0.00,,,0.00,pywws,2013-04-24 08:37:00,
2013-04-24 04:42:00,56.1,54.4,30.35,South,180,0.0,0.7,94,0.00,,,0.00,pywws,2013-04-24 08:42:00,
2013-04-24 04:47:00,56.1,54.4,30.35,South,180,0.7,2.2,94,0.00,,,0.00,pywws,2013-04-24 08:47:00,
2013-04-24 04:52:00,56.1,54.4,30.35,SW,225,0.7,3.1,94,0.00,,,0.00,pywws,2013-04-24 08:52:00,
2013-04-24 05:03:00,56.3,54.6,30.35,SW,225,0.0,1.6,94,0.00,,,0.00,pywws,2013-04-24 09:03:00,
2013-04-24 05:07:00,56.3,54.6,30.35,SE,135,0.7,2.2,94,0.00,,,0.00,pywws,2013-04-24 09:07:00,
2013-04-24 05:12:00,56.3,54.6,30.36,South,180,0.0,0.7,94,0.00,,,0.00,pywws,2013-04-24 09:12:00,
2013-04-24 05:17:00,56.3,54.6,30.36,SW,225,1.6,2.2,94,0.00,,,0.00,pywws,2013-04-24 09:17:00,
2013-04-24 05:22:00,56.3,54.6,30.36,SE,135,0.7,2.2,94,0.00,,,0.00,pywws,2013-04-24 09:22:00,
2013-04-24 05:33:00,56.1,54.1,30.36,South,180,0.0,1.6,93,0.00,,,0.00,pywws,2013-04-24 09:33:00,
2013-04-24 05:37:00,56.1,54.1,30.36,South,180,0.0,2.2,93,0.00,,,0.00,pywws,2013-04-24 09:37:00,
2013-04-24 05:42:00,55.9,53.9,30.36,SE,135,0.0,0.7,93,0.00,,,0.00,pywws,2013-04-24 09:42:00,
2013-04-24 05:47:00,55.9,53.9,30.36,SE,135,0.7,2.2,93,0.00,,,0.00,pywws,2013-04-24 09:47:00,
2013-04-24 05:52:00,55.9,53.9,30.36,SE,135,0.0,1.6,93,0.00,,,0.00,pywws,2013-04-24 09:52:00,
2013-04-24 06:03:00,55.9,53.9,30.37,SE,135,1.6,2.2,93,0.00,,,0.00,pywws,2013-04-24 10:03:00,
2013-04-24 06:08:00,55.9,53.9,30.37,South,180,0.0,0.7,93,0.00,,,0.00,pywws,2013-04-24 10:08:00,
2013-04-24 06:13:00,55.8,53.8,30.37,South,180,0.7,1.6,93,0.00,,,0.00,pywws,2013-04-24 10:13:00,
2013-04-24 06:18:00,55.8,53.8,30.37,SE,135,0.7,1.6,93,0.00,,,0.00,pywws,2013-04-24 10:18:00,
2013-04-24 06:23:00,55.8,53.8,30.37,South,180,0.0,0.7,93,0.00,,,0.00,pywws,2013-04-24 10:23:00,
2013-04-24 06:33:00,55.8,54.1,30.37,SE,135,0.7,1.6,94,0.00,,,0.00,pywws,2013-04-24 10:33:00,
2013-04-24 06:38:00,55.8,54.1,30.37,SW,225,0.7,1.6,94,0.00,,,0.00,pywws,2013-04-24 10:38:00,
2013-04-24 06:43:00,55.8,54.1,30.37,SW,225,0.0,0.0,94,0.00,,,0.00,pywws,2013-04-24 10:43:00,
2013-04-24 06:48:00,55.8,54.1,30.37,South,180,0.0,0.7,94,0.00,,,0.00,pywws,2013-04-24 10:48:00,
2013-04-24 06:53:00,55.6,53.9,30.37,West,270,0.7,2.2,94,0.00,,,0.00,pywws,2013-04-24 10:53:00,
2013-04-24 07:03:00,55.6,53.9,30.37,SE,135,0.0,1.6,94,0.00,,,0.00,pywws,2013-04-24 11:03:00,
2013-04-24 07:08:00,55.6,53.9,30.37,SE,135,0.7,2.2,94,0.00,,,0.00,pywws,2013-04-24 11:08:00,
2013-04-24 07:13:00,55.6,53.9,30.37,SE,135,0.0,0.7,94,0.00,,,0.00,pywws,2013-04-24 11:13:00,
2013-04-24 07:18:00,55.6,53.9,30.37,East,90,0.7,2.2,94,0.00,,,0.00,pywws,2013-04-24 11:18:00,
2013-04-24 07:23:00,55.4,53.7,30.37,SE,135,0.7,3.1,94,0.00,,,0.00,pywws,2013-04-24 11:23:00,
2013-04-24 07:33:00,55.4,53.7,30.37,SE,135,0.7,1.6,94,0.00,,,0.00,pywws,2013-04-24 11:33:00,
2013-04-24 07:37:00,55.6,53.9,30.37,East,90,0.0,2.2,94,0.00,,,0.00,pywws,2013-04-24 11:37:00,
2013-04-24 07:42:00,55.8,54.1,30.37,SE,135,0.7,2.2,94,0.00,,,0.00,pywws,2013-04-24 11:42:00,
2013-04-24 07:47:00,55.8,54.1,30.37,South,180,0.7,2.2,94,0.00,,,0.00,pywws,2013-04-24 11:47:00,
2013-04-24 07:52:00,55.9,54.2,30.37,South,180,0.0,1.6,94,0.00,,,0.00,pywws,2013-04-24 11:52:00,
2013-04-24 08:03:00,56.1,54.4,30.37,South,180,0.7,2.2,94,0.00,,,0.00,pywws,2013-04-24 12:03:00,
2013-04-24 08:08:00,56.5,54.5,30.36,SW,225,2.2,3.8,93,0.00,,,0.00,pywws,2013-04-24 12:08:00,
2013-04-24 08:13:00,56.5,54.5,30.36,SE,135,0.7,1.6,93,0.00,,,0.00,pywws,2013-04-24 12:13:00,
2013-04-24 08:18:00,56.5,54.5,30.35,South,180,0.7,1.6,93,0.00,,,0.00,pywws,2013-04-24 12:18:00,
2013-04-24 08:23:00,56.5,54.2,30.35,South,180,0.0,1.6,92,0.00,,,0.00,pywws,2013-04-24 12:23:00,
2013-04-24 08:33:00,56.5,54.2,30.35,SE,135,1.6,3.1,92,0.00,,,0.00,pywws,2013-04-24 12:33:00,
2013-04-24 08:37:00,56.7,54.1,30.35,SE,135,2.2,4.5,91,0.00,,,0.00,pywws,2013-04-24 12:37:00,
2013-04-24 08:42:00,57.0,54.4,30.35,SE,135,1.6,3.8,91,0.00,,,0.00,pywws,2013-04-24 12:42:00,
2013-04-24 08:47:00,57.0,54.4,30.34,SE,135,0.7,1.6,91,0.00,,,0.00,pywws,2013-04-24 12:47:00,
2013-04-24 08:52:00,57.7,55.1,30.34,SE,135,0.7,2.2,91,0.00,,,0.00,pywws,2013-04-24 12:52:00,
2013-04-24 09:03:00,58.1,55.2,30.34,SW,225,1.6,3.8,90,0.00,,,0.00,pywws,2013-04-24 13:03:00,
2013-04-24 09:08:00,58.6,55.1,30.34,SE,135,2.2,5.4,88,0.00,,,0.00,pywws,2013-04-24 13:08:00,
2013-04-24 09:13:00,59.0,55.4,30.34,SE,135,1.6,2.2,88,0.00,,,0.00,pywws,2013-04-24 13:13:00,
2013-04-24 09:18:00,59.4,55.5,30.34,East,90,0.7,2.2,87,0.00,,,0.00,pywws,2013-04-24 13:18:00,
2013-04-24 09:23:00,59.9,56.0,30.34,SE,135,2.2,3.8,87,0.00,,,0.00,pywws,2013-04-24 13:23:00,
2013-04-24 09:33:00,60.1,54.9,30.34,SE,135,3.1,6.0,83,0.00,,,0.00,pywws,2013-04-24 13:33:00,
2013-04-24 09:37:00,61.2,55.6,30.34,NW,315,1.6,3.8,82,0.00,,,0.00,pywws,2013-04-24 13:37:00,
2013-04-24 09:42:00,61.5,55.6,30.34,SSE,158,2.2,5.4,81,0.00,,,0.00,pywws,2013-04-24 13:42:00,
2013-04-24 09:47:00,62.1,55.8,30.34,SE,135,0.7,1.6,80,0.00,,,0.00,pywws,2013-04-24 13:47:00,
2013-04-24 09:52:00,62.6,55.6,30.33,SE,135,2.2,6.9,78,0.00,,,0.00,pywws,2013-04-24 13:52:00,
2013-04-24 10:03:00,63.0,55.6,30.33,South,180,0.7,1.6,77,0.00,,,0.00,pywws,2013-04-24 14:03:00,
2013-04-24 10:08:00,64.0,55.6,30.33,South,180,1.6,3.8,74,0.00,,,0.00,pywws,2013-04-24 14:08:00,
2013-04-24 10:13:00,65.1,55.9,30.33,SE,135,0.7,3.1,72,0.00,,,0.00,pywws,2013-04-24 14:13:00,
2013-04-24 10:18:00,64.9,55.3,30.33,NW,315,2.2,3.8,71,0.00,,,0.00,pywws,2013-04-24 14:18:00,
2013-04-24 10:23:00,65.3,54.9,30.33,SE,135,2.2,3.8,69,0.00,,,0.00,pywws,2013-04-24 14:23:00,
2013-04-24 10:33:00,65.8,56.2,30.33,North,0,1.6,3.8,71,0.00,,,0.00,pywws,2013-04-24 14:33:00,
2013-04-24 10:38:00,66.9,56.0,30.33,SE,135,2.2,3.8,68,0.00,,,0.00,pywws,2013-04-24 14:38:00,
2013-04-24 10:43:00,67.1,55.8,30.33,SE,135,3.1,5.4,67,0.00,,,0.00,pywws,2013-04-24 14:43:00,
2013-04-24 10:48:00,67.1,55.8,30.33,SSW,202,0.7,2.2,67,0.00,,,0.00,pywws,2013-04-24 14:48:00,
2013-04-24 10:53:00,68.0,56.6,30.32,SE,135,1.6,4.5,67,0.00,,,0.00,pywws,2013-04-24 14:53:00,
2013-04-24 11:03:00,68.5,56.3,30.32,SE,135,2.2,3.1,65,0.00,,,0.00,pywws,2013-04-24 15:03:00,
2013-04-24 11:07:00,69.8,56.2,30.32,ESE,112,3.8,5.4,62,0.00,,,0.00,pywws,2013-04-24 15:07:00,
2013-04-24 11:12:00,71.1,56.0,30.32,SE,135,3.8,8.3,59,0.00,,,0.00,pywws,2013-04-24 15:12:00,
2013-04-24 11:17:00,71.6,56.5,30.32,South,180,1.6,3.8,59,0.00,,,0.00,pywws,2013-04-24 15:17:00,
2013-04-24 11:22:00,72.7,56.6,30.32,WSW,248,1.6,5.4,57,0.00,,,0.00,pywws,2013-04-24 15:22:00,
2013-04-24 11:33:00,72.5,55.9,30.32,South,180,3.1,4.5,56,0.00,,,0.00,pywws,2013-04-24 15:33:00,
2013-04-24 11:37:00,73.6,56.4,30.31,West,270,0.0,2.2,55,0.00,,,0.00,pywws,2013-04-24 15:37:00,
2013-04-24 11:42:00,74.3,56.0,30.31,WNW,292,2.2,4.5,53,0.00,,,0.00,pywws,2013-04-24 15:42:00,
2013-04-24 11:47:00,74.5,55.7,30.31,SW,225,2.2,4.5,52,0.00,,,0.00,pywws,2013-04-24 15:47:00,
2013-04-24 11:52:00,75.4,57.0,30.31,South,180,0.7,2.2,53,0.00,,,0.00,pywws,2013-04-24 15:52:00,
2013-04-24 12:03:00,75.7,56.3,30.31,SE,135,2.2,4.5,51,0.00,,,0.00,pywws,2013-04-24 16:03:00,
2013-04-24 12:07:00,74.7,56.4,30.30,NW,315,0.0,3.1,53,0.00,,,0.00,pywws,2013-04-24 16:07:00,
2013-04-24 12:12:00,74.8,56.0,30.30,WNW,292,3.8,6.9,52,0.00,,,0.00,pywws,2013-04-24 16:12:00,
2013-04-24 12:17:00,74.1,56.4,30.29,WNW,292,3.1,6.9,54,0.00,,,0.00,pywws,2013-04-24 16:17:00,
2013-04-24 12:22:00,73.8,56.6,30.29,South,180,0.7,3.1,55,0.00,,,0.00,pywws,2013-04-24 16:22:00,
2013-04-24 12:33:00,73.9,56.7,30.29,South,180,0.7,2.2,55,0.00,,,0.00,pywws,2013-04-24 16:33:00,
2013-04-24 12:37:00,75.6,56.7,30.29,South,180,2.2,4.5,52,0.00,,,0.00,pywws,2013-04-24 16:37:00,
2013-04-24 12:42:00,75.7,56.8,30.29,West,270,2.2,3.8,52,0.00,,,0.00,pywws,2013-04-24 16:42:00,
2013-04-24 12:47:00,75.6,56.1,30.29,East,90,4.5,7.6,51,0.00,,,0.00,pywws,2013-04-24 16:47:00,
2013-04-24 12:52:00,75.9,56.5,30.28,West,270,3.1,4.5,51,0.00,,,0.00,pywws,2013-04-24 16:52:00,
2013-04-24 13:03:00,75.7,55.8,30.28,SSE,158,2.2,3.8,50,0.00,,,0.00,pywws,2013-04-24 17:03:00,
2013-04-24 13:07:00,77.0,56.4,30.27,NW,315,2.2,4.5,49,0.00,,,0.00,pywws,2013-04-24 17:07:00,
2013-04-24 13:12:00,76.6,56.6,30.27,SW,225,2.2,4.5,50,0.00,,,0.00,pywws,2013-04-24 17:12:00,
2013-04-24 13:17:00,77.0,56.4,30.27,NW,315,3.8,6.9,49,0.00,,,0.00,pywws,2013-04-24 17:17:00,
2013-04-24 13:22:00,77.0,56.4,30.27,East,90,2.2,5.4,49,0.00,,,0.00,pywws,2013-04-24 17:22:00,
2013-04-24 13:33:00,77.0,56.4,30.27,SW,225,3.1,6.0,49,0.00,,,0.00,pywws,2013-04-24 17:33:00,
2013-04-24 13:37:00,77.2,56.0,30.26,SE,135,1.6,3.1,48,0.00,,,0.00,pywws,2013-04-24 17:37:00,
2013-04-24 13:42:00,77.0,56.4,30.26,SW,225,1.6,4.5,49,0.00,,,0.00,pywws,2013-04-24 17:42:00,
2013-04-24 13:47:00,77.0,55.8,30.26,SW,225,3.8,6.9,48,0.00,,,0.00,pywws,2013-04-24 17:47:00,
2013-04-24 13:52:00,77.9,56.0,30.26,North,0,3.1,7.6,47,0.00,,,0.00,pywws,2013-04-24 17:52:00,
2013-04-24 14:03:00,78.1,56.2,30.25,West,270,2.2,4.5,47,0.00,,,0.00,pywws,2013-04-24 18:03:00,
2013-04-24 14:07:00,76.8,56.2,30.25,SE,135,2.2,5.4,49,0.00,,,0.00,pywws,2013-04-24 18:07:00,
2013-04-24 14:12:00,77.4,56.1,30.25,North,0,1.6,3.1,48,0.00,,,0.00,pywws,2013-04-24 18:12:00,
2013-04-24 14:17:00,77.2,56.0,30.25,NNW,338,2.2,3.8,48,0.00,,,0.00,pywws,2013-04-24 18:17:00,
2013-04-24 14:22:00,76.6,56.0,30.25,WNW,292,0.7,1.6,49,0.00,,,0.00,pywws,2013-04-24 18:22:00,
2013-04-24 14:33:00,77.0,56.4,30.25,South,180,0.7,1.6,49,0.00,,,0.00,pywws,2013-04-24 18:33:00,
2013-04-24 14:37:00,77.2,55.4,30.24,West,270,5.4,6.9,47,0.00,,,0.00,pywws,2013-04-24 18:37:00,
2013-04-24 14:42:00,77.9,56.0,30.24,West,270,3.8,6.0,47,0.00,,,0.00,pywws,2013-04-24 18:42:00,
2013-04-24 14:47:00,78.3,55.8,30.24,South,180,1.6,4.5,46,0.00,,,0.00,pywws,2013-04-24 18:47:00,
2013-04-24 14:52:00,78.8,56.2,30.23,North,0,1.6,3.8,46,0.00,,,0.00,pywws,2013-04-24 18:52:00,
2013-04-24 15:03:00,78.4,55.3,30.23,SE,135,3.1,9.2,45,0.00,,,0.00,pywws,2013-04-24 19:03:00,
2013-04-24 15:08:00,78.4,55.9,30.23,South,180,3.1,6.0,46,0.00,,,0.00,pywws,2013-04-24 19:08:00,
2013-04-24 15:13:00,79.0,55.8,30.23,West,270,2.2,3.8,45,0.00,,,0.00,pywws,2013-04-24 19:13:00,
2013-04-24 15:18:00,79.5,55.7,30.22,NW,315,2.2,5.4,44,0.00,,,0.00,pywws,2013-04-24 19:18:00,
2013-04-24 15:23:00,80.4,55.8,30.22,SE,135,0.7,2.2,43,0.00,,,0.00,pywws,2013-04-24 19:23:00,
2013-04-24 15:33:00,79.9,55.4,30.22,West,270,1.6,3.1,43,0.00,,,0.00,pywws,2013-04-24 19:33:00,
2013-04-24 15:37:00,80.1,55.5,30.22,South,180,2.2,5.4,43,0.00,,,0.00,pywws,2013-04-24 19:37:00,
2013-04-24 15:42:00,80.8,56.2,30.21,SE,135,1.6,5.4,43,0.00,,,0.00,pywws,2013-04-24 19:42:00,
2013-04-24 15:47:00,80.8,56.2,30.21,East,90,0.7,2.2,43,0.00,,,0.00,pywws,2013-04-24 19:47:00,
2013-04-24 15:52:00,80.6,55.4,30.21,NW,315,3.1,7.6,42,0.00,,,0.00,pywws,2013-04-24 19:52:00,
2013-04-24 16:03:00,80.4,55.8,30.21,South,180,2.2,5.4,43,0.00,,,0.00,pywws,2013-04-24 20:03:00,
2013-04-24 16:07:00,79.9,56.0,30.21,SE,135,1.6,3.8,44,0.00,,,0.00,pywws,2013-04-24 20:07:00,
2013-04-24 16:12:00,81.0,56.3,30.20,SW,225,0.7,4.5,43,0.00,,,0.00,pywws,2013-04-24 20:12:00,
2013-04-24 16:17:00,80.8,55.5,30.20,SE,135,1.6,3.1,42,0.00,,,0.00,pywws,2013-04-24 20:17:00,
2013-04-24 16:22:00,80.4,55.8,30.20,South,180,1.6,4.5,43,0.00,,,0.00,pywws,2013-04-24 20:22:00,
2013-04-24 16:33:00,80.1,54.9,30.20,SE,135,1.6,3.1,42,0.00,,,0.00,pywws,2013-04-24 20:33:00,
2013-04-24 16:37:00,80.1,56.2,30.19,SE,135,1.6,2.2,44,0.00,,,0.00,pywws,2013-04-24 20:37:00,
2013-04-24 16:42:00,80.2,55.7,30.19,SE,135,2.2,3.8,43,0.00,,,0.00,pywws,2013-04-24 20:42:00,
2013-04-24 16:47:00,80.2,56.3,30.19,SW,225,0.7,2.2,44,0.00,,,0.00,pywws,2013-04-24 20:47:00,
2013-04-24 16:52:00,79.5,55.7,30.19,South,180,2.2,4.5,44,0.00,,,0.00,pywws,2013-04-24 20:52:00,
2013-04-24 17:03:00,79.0,55.2,30.19,NE,45,0.7,1.6,44,0.00,,,0.00,pywws,2013-04-24 21:03:00,
2013-04-24 17:08:00,78.6,56.1,30.19,SE,135,0.7,2.2,46,0.00,,,0.00,pywws,2013-04-24 21:08:00,
2013-04-24 17:13:00,78.3,55.8,30.18,SSE,158,2.2,4.5,46,0.00,,,0.00,pywws,2013-04-24 21:13:00,
2013-04-24 17:18:00,78.3,55.8,30.18,NW,315,0.0,2.2,46,0.00,,,0.00,pywws,2013-04-24 21:18:00,
2013-04-24 17:23:00,78.3,55.8,30.18,South,180,0.7,3.1,46,0.00,,,0.00,pywws,2013-04-24 21:23:00,
2013-04-24 17:33:00,78.3,55.8,30.18,SW,225,0.7,4.5,46,0.00,,,0.00,pywws,2013-04-24 21:33:00,
2013-04-24 17:37:00,78.3,55.8,30.16,NE,45,2.2,5.4,46,0.00,,,0.00,pywws,2013-04-24 21:37:00,
2013-04-24 17:42:00,78.3,55.8,30.16,South,180,3.8,6.0,46,0.00,,,0.00,pywws,2013-04-24 21:42:00,
2013-04-24 17:47:00,78.4,55.9,30.16,South,180,2.2,5.4,46,0.00,,,0.00,pywws,2013-04-24 21:47:00,
2013-04-24 17:52:00,78.4,55.9,30.16,NNW,338,2.2,3.8,46,0.00,,,0.00,pywws,2013-04-24 21:52:00,
2013-04-24 18:03:00,78.3,56.4,30.15,West,270,0.7,5.4,47,0.00,,,0.00,pywws,2013-04-24 22:03:00,
2013-04-24 18:07:00,77.4,56.1,30.15,West,270,3.1,6.0,48,0.00,,,0.00,pywws,2013-04-24 22:07:00,
2013-04-24 18:12:00,77.4,56.7,30.15,West,270,2.2,5.4,49,0.00,,,0.00,pywws,2013-04-24 22:12:00,
2013-04-24 18:17:00,77.2,56.5,30.15,SW,225,1.6,4.5,49,0.00,,,0.00,pywws,2013-04-24 22:17:00,
2013-04-24 18:22:00,77.4,56.7,30.14,West,270,2.2,3.8,49,0.00,,,0.00,pywws,2013-04-24 22:22:00,
2013-04-24 18:33:00,77.5,56.9,30.14,West,270,1.6,4.5,49,0.00,,,0.00,pywws,2013-04-24 22:33:00,
2013-04-24 18:37:00,77.4,56.7,30.14,WSW,248,2.2,5.4,49,0.00,,,0.00,pywws,2013-04-24 22:37:00,
2013-04-24 18:42:00,77.2,57.1,30.14,SW,225,0.7,2.2,50,0.00,,,0.00,pywws,2013-04-24 22:42:00,
2013-04-24 18:47:00,77.0,57.5,30.14,NW,315,1.6,2.2,51,0.00,,,0.00,pywws,2013-04-24 22:47:00,
2013-04-24 18:52:00,76.6,57.7,30.13,NW,315,0.7,1.6,52,0.00,,,0.00,pywws,2013-04-24 22:52:00,
2013-04-24 19:03:00,76.5,57.5,30.13,SE,135,0.7,2.2,52,0.00,,,0.00,pywws,2013-04-24 23:03:00,
2013-04-24 19:08:00,76.1,57.7,30.13,South,180,0.0,1.6,53,0.00,,,0.00,pywws,2013-04-24 23:08:00,
2013-04-24 19:13:00,75.9,57.5,30.13,NW,315,0.0,1.6,53,0.00,,,0.00,pywws,2013-04-24 23:13:00,
2013-04-24 19:18:00,75.4,57.6,30.13,WSW,248,0.0,1.6,54,0.00,,,0.00,pywws,2013-04-24 23:18:00,
2013-04-24 19:23:00,75.6,57.7,30.13,SE,135,0.0,1.6,54,0.00,,,0.00,pywws,2013-04-24 23:23:00,
2013-04-24 19:33:00,75.4,58.1,30.13,South,180,0.0,0.0,55,0.00,,,0.00,pywws,2013-04-24 23:33:00,
2013-04-24 19:37:00,74.8,58.1,30.13,West,270,0.0,2.2,56,0.00,,,0.00,pywws,2013-04-24 23:37:00,
2013-04-24 19:42:00,74.7,57.9,30.13,South,180,0.7,2.2,56,0.00,,,0.00,pywws,2013-04-24 23:42:00,
2013-04-24 19:47:00,74.3,57.6,30.13,NW,315,0.0,0.7,56,0.00,,,0.00,pywws,2013-04-24 23:47:00,
2013-04-24 19:52:00,74.1,57.9,30.13,SW,225,0.0,2.2,57,0.00,,,0.00,pywws,2013-04-24 23:52:00,
2013-04-24 20:03:00,73.9,57.7,30.13,NW,315,0.7,1.6,57,0.00,,,0.00,pywws,2013-04-25 00:03:00,
2013-04-24 20:08:00,73.4,57.7,30.13,SW,225,0.0,0.0,58,0.00,,,0.00,pywws,2013-04-25 00:08:00,
2013-04-24 20:13:00,73.0,57.4,30.13,SW,225,0.0,0.0,58,0.00,,,0.00,pywws,2013-04-25 00:13:00,
2013-04-24 20:18:00,72.7,57.5,30.13,SW,225,0.0,0.0,59,0.00,,,0.00,pywws,2013-04-25 00:18:00,
2013-04-24 20:23:00,72.3,57.6,30.13,SW,225,0.0,0.0,60,0.00,,,0.00,pywws,2013-04-25 00:23:00,
2013-04-24 20:33:00,72.0,57.8,30.13,SW,225,0.0,0.0,61,0.00,,,0.00,pywws,2013-04-25 00:33:00,
2013-04-24 20:37:00,71.4,57.7,30.13,SW,225,0.0,0.0,62,0.00,,,0.00,pywws,2013-04-25 00:37:00,
2013-04-24 20:42:00,71.2,58.0,30.13,SW,225,0.0,0.0,63,0.00,,,0.00,pywws,2013-04-25 00:42:00,
2013-04-24 20:47:00,71.1,58.3,30.13,SW,225,0.0,0.0,64,0.00,,,0.00,pywws,2013-04-25 00:47:00,
2013-04-24 20:52:00,70.7,57.9,30.13,SW,225,0.0,0.0,64,0.00,,,0.00,pywws,2013-04-25 00:52:00,
2013-04-24 21:03:00,70.3,58.0,30.13,SW,225,0.0,0.0,65,0.00,,,0.00,pywws,2013-04-25 01:03:00,
2013-04-24 21:08:00,69.6,58.2,30.14,SE,135,0.0,0.7,67,0.00,,,0.00,pywws,2013-04-25 01:08:00,
2013-04-24 21:13:00,69.3,58.6,30.14,SE,135,0.7,1.6,69,0.00,,,0.00,pywws,2013-04-25 01:13:00,
2013-04-24 21:18:00,68.9,58.7,30.14,SE,135,0.0,0.0,70,0.00,,,0.00,pywws,2013-04-25 01:18:00,
2013-04-24 21:23:00,68.9,58.7,30.14,West,270,0.0,0.0,70,0.00,,,0.00,pywws,2013-04-25 01:23:00,
2013-04-24 21:33:00,68.7,58.5,30.14,SW,225,0.0,0.0,70,0.00,,,0.00,pywws,2013-04-25 01:33:00,
2013-04-24 21:37:00,68.7,58.9,30.14,SW,225,0.0,0.0,71,0.00,,,0.00,pywws,2013-04-25 01:37:00,
2013-04-24 21:42:00,68.7,58.9,30.14,SW,225,0.0,0.0,71,0.00,,,0.00,pywws,2013-04-25 01:42:00,
2013-04-24 21:47:00,68.7,58.9,30.14,SW,225,0.0,0.0,71,0.00,,,0.00,pywws,2013-04-25 01:47:00,
2013-04-24 21:52:00,68.7,59.3,30.14,SE,135,0.0,0.7,72,0.00,,,0.00,pywws,2013-04-25 01:52:00,
2013-04-24 22:03:00,68.7,59.3,30.14,SE,135,0.0,0.0,72,0.00,,,0.00,pywws,2013-04-25 02:03:00,
2013-04-24 22:08:00,68.7,58.9,30.14,SE,135,0.0,0.0,71,0.00,,,0.00,pywws,2013-04-25 02:08:00,
2013-04-24 22:13:00,68.7,58.9,30.14,SE,135,0.0,0.0,71,0.00,,,0.00,pywws,2013-04-25 02:13:00,
2013-04-24 22:18:00,68.7,58.9,30.14,SE,135,0.0,0.0,71,0.00,,,0.00,pywws,2013-04-25 02:18:00,
2013-04-24 22:23:00,68.7,59.3,30.14,SE,135,0.0,0.0,72,0.00,,,0.00,pywws,2013-04-25 02:23:00,
2013-04-24 22:33:00,68.5,59.1,30.15,SE,135,0.0,0.0,72,0.00,,,0.00,pywws,2013-04-25 02:33:00,
2013-04-24 22:38:00,67.8,58.8,30.15,SE,135,0.0,0.7,73,0.00,,,0.00,pywws,2013-04-25 02:38:00,
2013-04-24 22:43:00,67.5,58.9,30.15,SE,135,0.0,0.0,74,0.00,,,0.00,pywws,2013-04-25 02:43:00,
2013-04-24 22:48:00,67.1,58.5,30.15,SE,135,0.0,0.0,74,0.00,,,0.00,pywws,2013-04-25 02:48:00,
2013-04-24 22:53:00,66.7,58.6,30.15,SE,135,0.0,0.0,75,0.00,,,0.00,pywws,2013-04-25 02:53:00,
2013-04-24 23:03:00,66.6,58.8,30.15,SE,135,0.0,0.0,76,0.00,,,0.00,pywws,2013-04-25 03:03:00,
2013-04-24 23:08:00,66.2,58.8,30.16,SE,135,0.0,0.0,77,0.00,,,0.00,pywws,2013-04-25 03:08:00,
2013-04-24 23:13:00,66.2,58.8,30.16,SE,135,0.0,0.0,77,0.00,,,0.00,pywws,2013-04-25 03:13:00,
2013-04-24 23:18:00,66.2,58.8,30.16,SE,135,0.0,0.0,77,0.00,,,0.00,pywws,2013-04-25 03:18:00,
2013-04-24 23:23:00,66.0,58.6,30.16,SE,135,0.0,0.0,77,0.00,,,0.00,pywws,2013-04-25 03:23:00,
2013-04-24 23:33:00,65.8,58.8,30.16,SE,135,0.0,0.0,78,0.00,,,0.00,pywws,2013-04-25 03:33:00,
2013-04-24 23:38:00,65.7,58.6,30.17,SE,135,0.0,0.0,78,0.00,,,0.00,pywws,2013-04-25 03:38:00,
2013-04-24 23:43:00,65.5,58.8,30.17,SE,135,0.0,0.0,79,0.00,,,0.00,pywws,2013-04-25 03:43:00,
2013-04-24 23:48:00,65.3,58.6,30.17,SE,135,0.0,0.0,79,0.00,,,0.00,pywws,2013-04-25 03:48:00,
2013-04-24 23:53:00,65.3,58.6,30.17,SE,135,0.0,0.0,79,0.00,,,0.00,pywws,2013-04-25 03:53:00,